![]() |
EMODnet Physics ERDDAP
Easier access to scientific data |
log in|
Brought to you by EMODnet Physics |
| Dataset Title: | NDBC - Collection of dew point temperature (DEWT) TimeSeries - IN SITU MultiPointTimeSeriesObservation
|
| Institution: | NDBC (Dataset ID: TS_DEWT_NDBC) |
| Information: | Summary
| License
| FGDC
| ISO 19115
| Metadata
| Background
| Subset
| Data Access Form
| Make a graph
|
| Name | Last modified | Size | Description | |
|---|---|---|---|---|
| Parent Directory | - | - | ||
| SISA2_TS_DEWT_012008.nc | 27-Oct-2024 20:59 | 587165 | ||
| SISA2_TS_DEWT_012009.nc | 27-Oct-2024 20:59 | 587290 | ||
| SISA2_TS_DEWT_012010.nc | 27-Oct-2024 20:59 | 587024 | ||
| SISA2_TS_DEWT_012011.nc | 27-Oct-2024 20:59 | 587086 | ||
| SISA2_TS_DEWT_012013.nc | 27-Oct-2024 20:59 | 586988 | ||
| SISA2_TS_DEWT_012014.nc | 27-Oct-2024 20:59 | 438148 | ||
| SISA2_TS_DEWT_012015.nc | 27-Oct-2024 20:59 | 587065 | ||
| SISA2_TS_DEWT_012016.nc | 27-Oct-2024 20:59 | 439811 | ||
| SISA2_TS_DEWT_012018.nc | 27-Oct-2024 20:59 | 586974 | ||
| SISA2_TS_DEWT_012019.nc | 27-Oct-2024 20:59 | 587245 | ||
| SISA2_TS_DEWT_012020.nc | 27-Oct-2024 21:00 | 439289 | ||
| SISA2_TS_DEWT_012021.nc | 27-Oct-2024 21:00 | 587296 | ||
| SISA2_TS_DEWT_012022.nc | 27-Oct-2024 21:00 | 587198 | ||
| SISA2_TS_DEWT_012023.nc | 27-Oct-2024 21:00 | 428883 | ||
| SISA2_TS_DEWT_012024.nc | 27-Oct-2024 21:00 | 428809 | ||
| SISA2_TS_DEWT_012025.nc | 07-Feb-2025 15:34 | 428762 | ||
| SISA2_TS_DEWT_022007.nc | 27-Oct-2024 21:00 | 438924 | ||
| SISA2_TS_DEWT_022008.nc | 27-Oct-2024 21:00 | 438854 | ||
| SISA2_TS_DEWT_022009.nc | 27-Oct-2024 21:00 | 438752 | ||
| SISA2_TS_DEWT_022010.nc | 27-Oct-2024 21:00 | 438937 | ||
| SISA2_TS_DEWT_022011.nc | 27-Oct-2024 21:00 | 439506 | ||
| SISA2_TS_DEWT_022012.nc | 27-Oct-2024 21:00 | 438787 | ||
| SISA2_TS_DEWT_022014.nc | 27-Oct-2024 21:00 | 438693 | ||
| SISA2_TS_DEWT_022015.nc | 27-Oct-2024 21:00 | 438672 | ||
| SISA2_TS_DEWT_022016.nc | 27-Oct-2024 21:00 | 438898 | ||
| SISA2_TS_DEWT_022017.nc | 27-Oct-2024 21:00 | 438445 | ||
| SISA2_TS_DEWT_022018.nc | 27-Oct-2024 21:00 | 438083 | ||
| SISA2_TS_DEWT_022019.nc | 27-Oct-2024 21:00 | 438831 | ||
| SISA2_TS_DEWT_022020.nc | 27-Oct-2024 21:01 | 439561 | ||
| SISA2_TS_DEWT_022021.nc | 27-Oct-2024 21:01 | 437058 | ||
| SISA2_TS_DEWT_022022.nc | 27-Oct-2024 21:01 | 438871 | ||
| SISA2_TS_DEWT_022023.nc | 27-Oct-2024 21:01 | 438874 | ||
| SISA2_TS_DEWT_022024.nc | 16-Sep-2024 16:51 | 426064 | ||
| SISA2_TS_DEWT_022025.nc | 03-Mar-2025 11:08 | 429858 | ||
| SISA2_TS_DEWT_032007.nc | 27-Oct-2024 21:01 | 429815 | ||
| SISA2_TS_DEWT_032008.nc | 27-Oct-2024 21:01 | 587098 | ||
| SISA2_TS_DEWT_032009.nc | 27-Oct-2024 21:01 | 587230 | ||
| SISA2_TS_DEWT_032010.nc | 27-Oct-2024 21:01 | 439537 | ||
| SISA2_TS_DEWT_032011.nc | 27-Oct-2024 21:01 | 587373 | ||
| SISA2_TS_DEWT_032012.nc | 27-Oct-2024 21:01 | 587317 | ||
| SISA2_TS_DEWT_032014.nc | 27-Oct-2024 21:01 | 586807 | ||
| SISA2_TS_DEWT_032015.nc | 27-Oct-2024 21:01 | 440024 | ||
| SISA2_TS_DEWT_032016.nc | 27-Oct-2024 21:01 | 587254 | ||
| SISA2_TS_DEWT_032017.nc | 27-Oct-2024 21:01 | 439652 | ||
| SISA2_TS_DEWT_032018.nc | 27-Oct-2024 21:01 | 440327 | ||
| SISA2_TS_DEWT_032019.nc | 27-Oct-2024 21:01 | 586951 | ||
| SISA2_TS_DEWT_032020.nc | 27-Oct-2024 21:02 | 586941 | ||
| SISA2_TS_DEWT_032021.nc | 27-Oct-2024 21:02 | 587285 | ||
| SISA2_TS_DEWT_032022.nc | 27-Oct-2024 21:02 | 433382 | ||
| SISA2_TS_DEWT_032023.nc | 27-Oct-2024 21:02 | 587270 | ||
| SISA2_TS_DEWT_032025.nc | 02-Apr-2025 08:45 | 587321 | ||
| SISA2_TS_DEWT_042007.nc | 27-Oct-2024 21:02 | 427022 | ||
| SISA2_TS_DEWT_042008.nc | 27-Oct-2024 21:02 | 429364 | ||
| SISA2_TS_DEWT_042009.nc | 27-Oct-2024 21:02 | 429523 | ||
| SISA2_TS_DEWT_042010.nc | 27-Oct-2024 21:02 | 440094 | ||
| SISA2_TS_DEWT_042011.nc | 27-Oct-2024 21:02 | 439693 | ||
| SISA2_TS_DEWT_042012.nc | 27-Oct-2024 21:02 | 438097 | ||
| SISA2_TS_DEWT_042014.nc | 27-Oct-2024 21:02 | 440381 | ||
| SISA2_TS_DEWT_042015.nc | 27-Oct-2024 21:02 | 440005 | ||
| SISA2_TS_DEWT_042016.nc | 27-Oct-2024 21:02 | 440062 | ||
| SISA2_TS_DEWT_042017.nc | 27-Oct-2024 21:03 | 439344 | ||
| SISA2_TS_DEWT_042018.nc | 27-Oct-2024 21:03 | 440016 | ||
| SISA2_TS_DEWT_042019.nc | 27-Oct-2024 21:03 | 439765 | ||
| SISA2_TS_DEWT_042020.nc | 27-Oct-2024 21:03 | 440001 | ||
| SISA2_TS_DEWT_042021.nc | 27-Oct-2024 21:03 | 439853 | ||
| SISA2_TS_DEWT_042022.nc | 27-Oct-2024 21:03 | 439876 | ||
| SISA2_TS_DEWT_042023.nc | 27-Oct-2024 21:03 | 440222 | ||
| SISA2_TS_DEWT_042025.nc | 01-May-2025 07:51 | 438702 | ||
| SISA2_TS_DEWT_052007.nc | 27-Oct-2024 21:03 | 440252 | ||
| SISA2_TS_DEWT_052008.nc | 27-Oct-2024 21:03 | 440195 | ||
| SISA2_TS_DEWT_052009.nc | 27-Oct-2024 21:03 | 429669 | ||
| SISA2_TS_DEWT_052010.nc | 27-Oct-2024 21:03 | 429908 | ||
| SISA2_TS_DEWT_052011.nc | 27-Oct-2024 21:03 | 429909 | ||
| SISA2_TS_DEWT_052012.nc | 27-Oct-2024 21:03 | 587170 | ||
| SISA2_TS_DEWT_052013.nc | 27-Oct-2024 21:03 | 586932 | ||
| SISA2_TS_DEWT_052014.nc | 27-Oct-2024 21:03 | 587209 | ||
| SISA2_TS_DEWT_052015.nc | 27-Oct-2024 21:04 | 587401 | ||
| SISA2_TS_DEWT_052016.nc | 27-Oct-2024 21:04 | 440229 | ||
| SISA2_TS_DEWT_052017.nc | 27-Oct-2024 21:04 | 587031 | ||
| SISA2_TS_DEWT_052018.nc | 27-Oct-2024 21:04 | 587116 | ||
| SISA2_TS_DEWT_052019.nc | 27-Oct-2024 21:04 | 587064 | ||
| SISA2_TS_DEWT_052020.nc | 27-Oct-2024 21:04 | 440141 | ||
| SISA2_TS_DEWT_052021.nc | 27-Oct-2024 21:04 | 440036 | ||
| SISA2_TS_DEWT_052022.nc | 27-Oct-2024 21:04 | 440185 | ||
| SISA2_TS_DEWT_052023.nc | 27-Oct-2024 21:04 | 587259 | ||
| SISA2_TS_DEWT_052025.nc | 01-Jun-2025 09:19 | 587285 | ||
| SISA2_TS_DEWT_062007.nc | 27-Oct-2024 21:04 | 586993 | ||
| SISA2_TS_DEWT_062008.nc | 27-Oct-2024 21:04 | 587298 | ||
| SISA2_TS_DEWT_062009.nc | 27-Oct-2024 21:04 | 587317 | ||
| SISA2_TS_DEWT_062010.nc | 27-Oct-2024 21:04 | 429570 | ||
| SISA2_TS_DEWT_062011.nc | 27-Oct-2024 21:04 | 429521 | ||
| SISA2_TS_DEWT_062012.nc | 27-Oct-2024 21:04 | 429404 | ||
| SISA2_TS_DEWT_062013.nc | 27-Oct-2024 21:04 | 439650 | ||
| SISA2_TS_DEWT_062014.nc | 27-Oct-2024 21:05 | 439061 | ||
| SISA2_TS_DEWT_062015.nc | 27-Oct-2024 21:05 | 440072 | ||
| SISA2_TS_DEWT_062016.nc | 27-Oct-2024 21:05 | 440200 | ||
| SISA2_TS_DEWT_062017.nc | 27-Oct-2024 21:05 | 440028 | ||
| SISA2_TS_DEWT_062018.nc | 27-Oct-2024 21:05 | 440045 | ||
| SISA2_TS_DEWT_062019.nc | 27-Oct-2024 21:05 | 440127 | ||
| SISA2_TS_DEWT_062020.nc | 27-Oct-2024 21:05 | 439989 | ||
| SISA2_TS_DEWT_062021.nc | 27-Oct-2024 21:05 | 438900 | ||
| SISA2_TS_DEWT_062022.nc | 27-Oct-2024 21:05 | 439746 | ||
| SISA2_TS_DEWT_062023.nc | 27-Oct-2024 21:05 | 439947 | ||
| SISA2_TS_DEWT_062025.nc | 01-Jul-2025 07:46 | 439949 | ||
| SISA2_TS_DEWT_072007.nc | 27-Oct-2024 21:05 | 440222 | ||
| SISA2_TS_DEWT_072008.nc | 27-Oct-2024 21:05 | 439872 | ||
| SISA2_TS_DEWT_072009.nc | 27-Oct-2024 21:05 | 440134 | ||
| SISA2_TS_DEWT_072010.nc | 27-Oct-2024 21:05 | 440240 | ||
| SISA2_TS_DEWT_072011.nc | 27-Oct-2024 21:05 | 429909 | ||
| SISA2_TS_DEWT_072012.nc | 27-Oct-2024 21:06 | 429870 | ||
| SISA2_TS_DEWT_072013.nc | 27-Oct-2024 21:06 | 429832 | ||
| SISA2_TS_DEWT_072014.nc | 27-Oct-2024 21:06 | 587277 | ||
| SISA2_TS_DEWT_072015.nc | 27-Oct-2024 21:06 | 587423 | ||
| SISA2_TS_DEWT_072016.nc | 27-Oct-2024 21:06 | 587088 | ||
| SISA2_TS_DEWT_072017.nc | 27-Oct-2024 21:06 | 587117 | ||
| SISA2_TS_DEWT_072018.nc | 27-Oct-2024 21:06 | 587176 | ||
| SISA2_TS_DEWT_072019.nc | 27-Oct-2024 21:06 | 586905 | ||
| SISA2_TS_DEWT_072020.nc | 27-Oct-2024 21:06 | 587128 | ||
| SISA2_TS_DEWT_072021.nc | 27-Oct-2024 21:06 | 587106 | ||
| SISA2_TS_DEWT_072022.nc | 27-Oct-2024 21:06 | 439634 | ||
| SISA2_TS_DEWT_072024.nc | 09-Jan-2025 00:16 | 440398 | ||
| SISA2_TS_DEWT_072025.nc | 17-Jul-2025 07:14 | 587164 | ||
| SISA2_TS_DEWT_082007.nc | 27-Oct-2024 21:06 | 587001 | ||
| SISA2_TS_DEWT_082008.nc | 27-Oct-2024 21:06 | 587293 | ||
| SISA2_TS_DEWT_082009.nc | 27-Oct-2024 21:06 | 587009 | ||
| SISA2_TS_DEWT_082010.nc | 27-Oct-2024 21:06 | 587293 | ||
| SISA2_TS_DEWT_082011.nc | 27-Oct-2024 21:06 | 587296 | ||
| SISA2_TS_DEWT_082012.nc | 27-Oct-2024 21:06 | 428956 | ||
| SISA2_TS_DEWT_082013.nc | 27-Oct-2024 21:07 | 429864 | ||
| SISA2_TS_DEWT_082014.nc | 27-Oct-2024 21:07 | 429889 | ||
| SISA2_TS_DEWT_082015.nc | 27-Oct-2024 21:07 | 587271 | ||
| SISA2_TS_DEWT_082016.nc | 27-Oct-2024 21:07 | 586914 | ||
| SISA2_TS_DEWT_082017.nc | 27-Oct-2024 21:07 | 439242 | ||
| SISA2_TS_DEWT_082018.nc | 27-Oct-2024 21:07 | 586902 | ||
| SISA2_TS_DEWT_082019.nc | 27-Oct-2024 21:07 | 435808 | ||
| SISA2_TS_DEWT_082020.nc | 27-Oct-2024 21:07 | 587043 | ||
| SISA2_TS_DEWT_082021.nc | 27-Oct-2024 21:07 | 586898 | ||
| SISA2_TS_DEWT_082022.nc | 27-Oct-2024 21:07 | 440249 | ||
| SISA2_TS_DEWT_092007.nc | 27-Oct-2024 21:07 | 439544 | ||
| SISA2_TS_DEWT_092008.nc | 27-Oct-2024 21:07 | 438752 | ||
| SISA2_TS_DEWT_092009.nc | 27-Oct-2024 21:07 | 437711 | ||
| SISA2_TS_DEWT_092010.nc | 27-Oct-2024 21:07 | 587157 | ||
| SISA2_TS_DEWT_092011.nc | 27-Oct-2024 21:07 | 587219 | ||
| SISA2_TS_DEWT_092012.nc | 27-Oct-2024 21:08 | 587220 | ||
| SISA2_TS_DEWT_092013.nc | 27-Oct-2024 21:08 | 587321 | ||
| SISA2_TS_DEWT_092014.nc | 27-Oct-2024 21:08 | 587264 | ||
| SISA2_TS_DEWT_092015.nc | 27-Oct-2024 21:08 | 426673 | ||
| SISA2_TS_DEWT_092016.nc | 27-Oct-2024 21:08 | 426174 | ||
| SISA2_TS_DEWT_092017.nc | 27-Oct-2024 21:08 | 429569 | ||
| SISA2_TS_DEWT_092018.nc | 27-Oct-2024 21:08 | 422766 | ||
| SISA2_TS_DEWT_092019.nc | 27-Oct-2024 21:08 | 439703 | ||
| SISA2_TS_DEWT_092020.nc | 27-Oct-2024 21:08 | 440218 | ||
| SISA2_TS_DEWT_092021.nc | 27-Oct-2024 21:08 | 440001 | ||
| SISA2_TS_DEWT_092022.nc | 27-Oct-2024 21:08 | 439264 | ||
| SISA2_TS_DEWT_102006.nc | 27-Oct-2024 21:08 | 440130 | ||
| SISA2_TS_DEWT_102007.nc | 27-Oct-2024 21:08 | 439905 | ||
| SISA2_TS_DEWT_102008.nc | 27-Oct-2024 21:08 | 439908 | ||
| SISA2_TS_DEWT_102009.nc | 27-Oct-2024 21:08 | 437509 | ||
| SISA2_TS_DEWT_102010.nc | 27-Oct-2024 21:08 | 439525 | ||
| SISA2_TS_DEWT_102011.nc | 27-Oct-2024 21:08 | 440174 | ||
| SISA2_TS_DEWT_102012.nc | 27-Oct-2024 21:09 | 440166 | ||
| SISA2_TS_DEWT_102013.nc | 27-Oct-2024 21:09 | 440235 | ||
| SISA2_TS_DEWT_102014.nc | 27-Oct-2024 21:09 | 440215 | ||
| SISA2_TS_DEWT_102015.nc | 27-Oct-2024 21:09 | 440227 | ||
| SISA2_TS_DEWT_102016.nc | 27-Oct-2024 21:09 | 440265 | ||
| SISA2_TS_DEWT_102017.nc | 27-Oct-2024 21:09 | 429887 | ||
| SISA2_TS_DEWT_102018.nc | 27-Oct-2024 21:09 | 429603 | ||
| SISA2_TS_DEWT_102019.nc | 27-Oct-2024 21:09 | 429905 | ||
| SISA2_TS_DEWT_102020.nc | 27-Oct-2024 21:09 | 426248 | ||
| SISA2_TS_DEWT_102021.nc | 27-Oct-2024 21:09 | 587279 | ||
| SISA2_TS_DEWT_102022.nc | 27-Oct-2024 21:09 | 587073 | ||
| SISA2_TS_DEWT_102023.nc | 27-Oct-2024 21:09 | 439880 | ||
| SISA2_TS_DEWT_102024.nc | 12-Jan-2025 23:32 | 439966 | ||
| SISA2_TS_DEWT_112006.nc | 27-Oct-2024 21:09 | 587220 | ||
| SISA2_TS_DEWT_112007.nc | 27-Oct-2024 21:09 | 587271 | ||
| SISA2_TS_DEWT_112008.nc | 27-Oct-2024 21:09 | 587191 | ||
| SISA2_TS_DEWT_112009.nc | 27-Oct-2024 21:09 | 586925 | ||
| SISA2_TS_DEWT_112010.nc | 27-Oct-2024 21:10 | 437629 | ||
| SISA2_TS_DEWT_112011.nc | 27-Oct-2024 21:10 | 439961 | ||
| SISA2_TS_DEWT_112012.nc | 27-Oct-2024 21:10 | 587145 | ||
| SISA2_TS_DEWT_112013.nc | 27-Oct-2024 21:10 | 587277 | ||
| SISA2_TS_DEWT_112014.nc | 27-Oct-2024 21:10 | 587235 | ||
| SISA2_TS_DEWT_112015.nc | 27-Oct-2024 21:10 | 587273 | ||
| SISA2_TS_DEWT_112016.nc | 27-Oct-2024 21:10 | 440184 | ||
| SISA2_TS_DEWT_112017.nc | 27-Oct-2024 21:10 | 587399 | ||
| SISA2_TS_DEWT_112018.nc | 27-Oct-2024 21:10 | 429525 | ||
| SISA2_TS_DEWT_112019.nc | 27-Oct-2024 21:10 | 429455 | ||
| SISA2_TS_DEWT_112020.nc | 27-Oct-2024 21:10 | 429530 | ||
| SISA2_TS_DEWT_112021.nc | 27-Oct-2024 21:10 | 429517 | ||
| SISA2_TS_DEWT_112022.nc | 27-Oct-2024 21:10 | 440174 | ||
| SISA2_TS_DEWT_112023.nc | 27-Oct-2024 21:10 | 439869 | ||
| SISA2_TS_DEWT_112024.nc | 17-Jan-2025 21:17 | 439620 | ||
| SISA2_TS_DEWT_122006.nc | 27-Oct-2024 21:10 | 439656 | ||
| SISA2_TS_DEWT_122007.nc | 27-Oct-2024 21:10 | 440313 | ||
| SISA2_TS_DEWT_122009.nc | 27-Oct-2024 21:11 | 438473 | ||
| SISA2_TS_DEWT_122010.nc | 27-Oct-2024 21:11 | 439995 | ||
| SISA2_TS_DEWT_122011.nc | 27-Oct-2024 21:11 | 439581 | ||
| SISA2_TS_DEWT_122012.nc | 27-Oct-2024 21:11 | 439459 | ||
| SISA2_TS_DEWT_122013.nc | 27-Oct-2024 21:11 | 439786 | ||
| SISA2_TS_DEWT_122014.nc | 27-Oct-2024 21:11 | 440112 | ||
| SISA2_TS_DEWT_122015.nc | 27-Oct-2024 21:11 | 440218 | ||
| SISA2_TS_DEWT_122016.nc | 27-Oct-2024 21:11 | 438592 | ||
| SISA2_TS_DEWT_122017.nc | 27-Oct-2024 21:11 | 440225 | ||
| SISA2_TS_DEWT_122018.nc | 27-Oct-2024 21:11 | 440243 | ||
| SISA2_TS_DEWT_122019.nc | 27-Oct-2024 21:11 | 440236 | ||
| SISA2_TS_DEWT_122020.nc | 27-Oct-2024 21:11 | 429606 | ||
| SISA2_TS_DEWT_122021.nc | 27-Oct-2024 21:11 | 429836 | ||
| SISA2_TS_DEWT_122022.nc | 27-Oct-2024 21:11 | 429913 | ||
| SISA2_TS_DEWT_122023.nc | 27-Oct-2024 21:11 | 429908 | ||
| SISA2_TS_DEWT_122024.nc | 23-Jan-2025 01:14 | 587286 | ||